Regional Weather Roundup
Issued by NWS

Home | Current Version | Previous Version | Text Only | Print | Product List | Glossary On
Versions: 1 2 3 4 5 6 7 8 9 10 11 12 13 14 15 16 17 18 19 20 21 22 23 24 25 26 27 28 29 30 31 32 33 34 35 36 37 38 39 40 41 42 43 44 45 46 47 48 49 50
000
ASUS44 KFWD 212315
RWRTX
NORTH TEXAS HOURLY WEATHER ROUNDUP
NATIONAL WEATHER SERVICE FORT WORTH TX
500 PM CST SAT JAN 21 2017

NOTE: "FAIR" INDICATES FEW OR NO CLOUDS BELOW 12,000 FEET WITH NO
SIGNIFICANT WEATHER AND/OR OBSTRUCTIONS TO VISIBILITY.

TXZ118-119-220000-
DALLAS/FORT WORTH METROPLEX

CITY           SKY/WX    TMP DP  RH WIND       PRES   REMARKS
DFW AIRPORT    CLOUDY    67  56  67 S7        29.40R THUNDER
DALLAS LOVE    MOCLDY    69  54  58 S7        29.41R
FTW MEACHAM    TSTM      63  50  62 S15G29    29.41R
DAL-EXECUTIVE  PTCLDY    67  56  67 VRB5      29.41R
FTW-ALLIANCE   TSTM      57  49  74 VRB5G38   29.42R
FTW-NAS-JRB    TSTM      66  48  52 SW14G39   29.42R
FTW-SPINKS     MOCLDY    61  48  63 NW10G17   29.44R
ARLINGTON      TSTM      67  49  52 W24G38    29.46R
GRAND PRAIRIE  CLEAR     68  55  64 S3        29.42S
ADDISON        PTCLDY    68  57  68 S5        29.42
MESQUITE       PTCLDY    66  55  68 S10       29.42S
LANCASTER      CLEAR     65  57  76 CALM      29.42S
$$

TXZ091>094-102>105-117-120-121-131>134-220000-
NORTH CENTRAL TEXAS

CITY           SKY/WX    TMP DP  RH WIND       PRES   REMARKS
SHRMAN/DENISON MOCLDY    65  57  74 S6        29.42R
GAINESVILLE    CLOUDY    64  48  56 SE6       29.41S
BOWIE          CLOUDY    67  39  36 CALM      29.40R
BRIDGEPORT     CLOUDY    69  44  40 W5        29.42R
DECATUR        CLOUDY    67  42  39 SW3       29.41R
DENTON         LGT RAIN  66  47  50 SW13      29.41R
MCKINNEY       CLOUDY    64  58  80 S9        29.42R
BONHAM         CLOUDY    63  55  77 S10       29.42R
GREENVILLE     CLOUDY    64  57  77 S7        29.43S
ROCKWALL       CLOUDY    65  57  75 S9G24     29.42S
TERRELL        CLOUDY    66  59  78 SW7       29.42R
WAXAHACHIE     CLEAR     66  57  72 SW7       29.43R
CLEBURNE       PTCLDY    68  52  56 SW3       29.44R
GRANBURY       CLOUDY    63  50  63 SW5       29.43R
$$

TXZ083>090-098>101-113>116-127>130-139>142-154-155-220000-
WESTERN NORTH TEXAS

CITY           SKY/WX    TMP DP  RH WIND       PRES   REMARKS
WICHITA FALLS  PTCLDY    67  37  33 S12       29.34F
WF-KICKAPOO    CLOUDY    66  40  39 SE10      29.36F
VERNON         CLOUDY    66  37  33 S15       29.34S
ABILENE        CLOUDY    61  34  36 SW16      29.43S
ABILENE-DYESS  MOSUNNY   62  36  37 W21G29    29.42S
GRAHAM         MOCLDY    66  45  45 CALM      29.38F
BRECKENRIDGE   CLOUDY    68  31  25 W14       29.42S HAZE
CISCO          MOSUNNY   66  30  26 W17G28    29.44S
RANGER         PTCLDY    64  37  36 W9G17     29.46R
MINERAL WELLS  CLOUDY    68  44  42 SW8       29.40R
STEPHENVILLE   CLOUDY    61  46  56 SW14G25   29.49R
COMANCHE       CLOUDY    67  39  35 W17G24    29.47R
BROWNWOOD      MOSUNNY   66  36  32 W20G35    29.49R
COLEMAN        CLOUDY    64  37  36 W18G24    29.50R
$$

TXZ143>147-156>162-174-175-220000-
CENTRAL TEXAS

CITY           SKY/WX    TMP DP  RH WIND       PRES   REMARKS
WACO           CLOUDY    65  57  75 S6        29.42S
WACO-TSTC      PTCLDY    68  55  64 SW6       29.43R
WACO-MCGREGOR  LGT RAIN  68  55  63 S7        29.44R
HILLSBORO      MOCLDY    69  56  62 S5        29.43R
CORSICANA      CLEAR     68  57  68 SW6       29.43S
MEXIA          CLEAR     69  55  61 SW8       29.43R
HEARNE         CLEAR     74  53  48 CALM      29.44S
CAMERON          N/A     74  52  45 SW6       29.44R
TEMPLE         MOCLDY    72  50  45 S7        29.43S
KILLEEN        CLOUDY    73  36  26 W12       29.43R
KILLEEN-SKYLRK PTSUNNY   74  43  32 W15G21    29.43S
FORT HOOD      PTSUNNY   73  39  29 NW14G23   29.41R
GATESVILLE     CLOUDY    70  50  49 CALM      29.47R
HAMILTON       PTSUNNY   66  46  48 W17       29.48R
LAMPASAS       CLOUDY    73  39  29 NW9       29.44R
$$

TXZ095>097-106>112-122>126-135>138-148>153-164>167-220000-
EAST TEXAS

CITY           SKY/WX    TMP DP  RH WIND       PRES   REMARKS
PARIS          CLOUDY    61  55  82 SE5       29.43S
SULPHUR SPRNGS MOCLDY    65  59  81 SW3       29.44S
MOUNT PLEASANT CLOUDY    64  61  91 NE7       29.42F
GILMER         CLOUDY    67  58  72 SW3       29.41S
MINEOLA        MOCLDY    68  57  68 S5        29.41S
TYLER          PTCLDY    68  59  73 S7        29.41S
LONGVIEW       PTCLDY    68  62  81 SW8       29.40S
MARSHALL       CLOUDY    67  59  75 S9        29.42R
ATHENS         PTCLDY    66  55  68 SW3       29.41S
PALESTINE      PTCLDY    71  59  65 SW12      29.44R
JACKSONVILLE   PTCLDY    68  62  81 SW7       29.44S
HENDERSON      PTCLDY    68  59  74 SW3       29.43R
CENTER         PTCLDY    71  64  80 S6G16     29.43F
NACOGDOCHES    PTCLDY    70  59  68 SW10      29.42R
LUFKIN         PTCLDY    70  59  68 SW8       29.43R
$$

SUPPLEMENTAL OBSERVATIONS (CENTRAL)

CITY           SKY/WX    TMP DP  RH WIND       PRES   REMARKS
DENISON DAM      N/A     64  54  68 S5          N/A
CADDO GRASSLND   N/A     61  57  88 SE3G12      N/A
PAT MAYSE LAKE   N/A     59  57  94 E5          N/A
GREENVILLE       N/A     64  59  82 S5          N/A
CEDAR HILL       N/A     66  54  63 S3          N/A
ATHENS           N/A     68  59  73 W2G10       N/A
LAKE LIMESTONE   N/A     72  55  56 W7          N/A
MCGREGOR         N/A     63  48  59 W10G31      N/A
TEMPLE           N/A     73  45  35 SW2G10      N/A
$$

SUPPLEMENTAL OBSERVATIONS (WEST)

CITY           SKY/WX    TMP DP  RH WIND       PRES   REMARKS
MILLERS CREEK    N/A     64  37  36 SW20G28     N/A
POSSUM KINGDOM   N/A     68  36  30 W12G24      N/A
LBJ GRASSLAND    N/A     68  43  40 SW3G13      N/A
GRANBURY         N/A     63  48  59 SW7G22      N/A
COMANCHE         N/A     66  36  32 W21G26      N/A
HAMBY            N/A     61  36  39 SW18G26     N/A
IVIE RESERVOIR   N/A     63  37  39 W20G26      N/A
COLORADO BEND    N/A     68  32  26 N15G26      N/A
$$

SUPPLEMENTAL OBSERVATIONS (EAST)

CITY           SKY/WX    TMP DP  RH WIND       PRES   REMARKS
CLARKSVILLE      N/A     63  59  88 S2          N/A
TEXARKANA        N/A     64  61  88 SE1G10      N/A
LINDEN           N/A     63  59  88 SE7G17      N/A
CADDO LAKE       N/A     66  63  88 S3G13       N/A
GILMER           N/A     68  57  68 SW6         N/A
HENDERSON        N/A     68  61  77 SW7         N/A
LUFKIN           N/A    N/A N/A N/A MISG        N/A
N SABINE NF      N/A     68  66  94 MISG        N/A
S SABINE NF      N/A     70  64  83 CALM        N/A
$$

SUPPLEMENTAL OBSERVATIONS ARE A COLLECTION OF AUTOMATED INSTRUMENTS
THAT ARE MAINTAINED BY A VARIETY OF FEDERAL AND STATE AGENCIES.
CERTAIN ELEMENTS...SUCH AS HUMIDITY VALUES AND SUSTAINED WIND
SPEEDS...MAY BE APPROXIMATED.




USA.gov is the U.S. government's official web portal to all federal, state and local government web resources and services.